This is the latest recevied weather packets stored in our database for station/object N7SWJ. If no packets are shown the sender has not sent any weather packets the latest 1 day(s).
| Time | Temp. | Humidity | Pressure | Rain* | Wind** | Luminosity | Snow |
|---|---|---|---|---|---|---|---|
| 1777985274 | 2.22° C | 94% | 1016.7 hPa | 3.05 mm | 0 m/s | 4 W/m² | - |
| 1777984971 | 2.78° C | 94% | 1016.8 hPa | 1.78 mm | 0.45 m/s, 69° | 3 W/m² | - |
| 1777984666 | 2.22° C | 94% | 1016.7 hPa | 1.27 mm | 0 m/s | 4 W/m² | - |
| 1777984363 | 2.78° C | 94% | 1016.8 hPa | 1.27 mm | 0.45 m/s, 76° | 4 W/m² | - |
| 1777984060 | 2.22° C | 94% | 1016.6 hPa | 1.78 mm | 0.45 m/s, 64° | 4 W/m² | - |
| 1777983757 | 2.22° C | 94% | 1016.6 hPa | 1.78 mm | 0 m/s | 4 W/m² | - |
| 1777983453 | 2.78° C | 94% | 1016.5 hPa | 0 mm | 0.89 m/s, 50° | 4 W/m² | - |
| 1777983150 | 2.22° C | 94% | 1016.5 hPa | 0 mm | 0 m/s | 5 W/m² | - |
| 1777982846 | 2.22° C | 94% | 1016.5 hPa | 0 mm | 0.89 m/s, 71° | 5 W/m² | - |
| 1777982543 | 2.22° C | 94% | 1016.5 hPa | 0 mm | 0.45 m/s, 24° | 3 W/m² | - |
| 1777982241 | 2.78° C | 94% | 1016.5 hPa | 0 mm | 0.45 m/s, 80° | 1 W/m² | - |
| 1777981939 | 2.78° C | 94% | 1016.1 hPa | 1.27 mm | 0 m/s | 1 W/m² | - |
| 1777981636 | 2.78° C | 94% | 1016.3 hPa | 1.27 mm | 0 m/s | 0 W/m² | - |
| 1777981332 | 2.78° C | 94% | 1016.3 hPa | 0 mm | 0.45 m/s, 31° | 0 W/m² | - |
| 1777981029 | 2.78° C | 93% | 1016.2 hPa | 0 mm | 0 m/s | 0 W/m² | - |
| 1777980726 | 2.78° C | 93% | 1016 hPa | 0 mm | 0.89 m/s, 36° | 0 W/m² | - |
| 1777980422 | 2.78° C | 93% | 1015.7 hPa | 0 mm | 0.89 m/s, 29° | 0 W/m² | - |
| 1777980120 | 2.78° C | 93% | 1015.9 hPa | 0 mm | 0.45 m/s, 51° | 0 W/m² | - |
| 1777979819 | 2.78° C | 93% | 1015.5 hPa | 0 mm | 0 m/s | 0 W/m² | - |
| 1777979515 | 2.78° C | 93% | 1015.7 hPa | 0 mm | 0.45 m/s, 46° | 0 W/m² | - |
| 1777979211 | 2.78° C | 93% | 1015.7 hPa | 1.78 mm | 0 m/s | 0 W/m² | - |
| 1777978909 | 2.78° C | 93% | 1015.5 hPa | 1.78 mm | 0.45 m/s, 99° | 0 W/m² | - |
| 1777978606 | 2.78° C | 93% | 1015.5 hPa | 1.78 mm | 1.34 m/s, 57° | 0 W/m² | - |
| 1777978301 | 2.78° C | 93% | 1015.4 hPa | 0 mm | 0 m/s | 0 W/m² | - |
| 1777977998 | 2.78° C | 93% | 1015.2 hPa | 1.27 mm | 0.45 m/s, 48° | 0 W/m² | - |
* Rain latest hour (hover to see other rain measurements)
** Current wind speed in m/s (hover to see current wind gust speed)